PISAT (41784 NORAD) Tracking and Keplerian Element Data

This shows tracking and keplerian element data for the satellite.

Feedback or suggestion? Click here.




ElementValue
Catalog41784
NamePISAT
Epoch Orbit26599
Epoch Day262.0995256
Epoch Year2021
RAAN310.4558
Inclination97.9581
Eccentricity0.0030755
Argument of Perigee308.3662
Mean Anonmoly51.4778
Mean Motion14.63659548
Decay Rate1.11E-06
L11 41784U 16059B 21262.09952560 .00000111 00000-0 30152-4 0 9992
L22 41784 97.9581 310.4558 0030755 308.3662 51.4778 14.63659548265993

Live tracking and technical data element details for PISAT (NORAD 41784). PISAT can be tracked NOW for your location showing map with azimuth and elevation plus other details from your city location.

Track the satellite on the map from your city or location and see movement details for azimuth, elevation, latitude, longitude, range, height, and movement on the map or in text.







IsCatalogInMostPopularTable: catalog: 41784, numindb: 528
Update: records affected: 1



GetName: 41784 PISAT

Hit Count: updated at: Sun, 26 Sep 2021 00:25:17 GMT